Sylacauga Online Weather Center

Moon Phase Calendar



Online Cameras

 


      

Current Conditions in Sylacauga
5/18/2021 4:24:30 PM

77°F
Feels Like 77
Clear
Humidity
61%
Pressure
30.15"
Wind
8 mph (ESE)
Dew Point
62°F
UV Index
1/10 (Low)
Visibility
6 mi

Hourly Forecast

Date & Time Tue, May 18
4:00 PM
Tue, May 18
5:00 PM
Tue, May 18
6:00 PM
Tue, May 18
7:00 PM
Tue, May 18
8:00 PM
Tue, May 18
9:00 PM
Tue, May 18
10:00 PM
Tue, May 18
11:00 PM
Wed, May 19
12:00 AM
Wed, May 19
1:00 AM
Wed, May 19
2:00 AM
Wed, May 19
3:00 AM
Wed, May 19
4:00 AM
Wed, May 19
5:00 AM
Wed, May 19
6:00 AM
Wed, May 19
7:00 AM
Wed, May 19
8:00 AM
Wed, May 19
9:00 AM
Wed, May 19
10:00 AM
Wed, May 19
11:00 AM
Wed, May 19
12:00 PM
Wed, May 19
1:00 PM
Wed, May 19
2:00 PM
Wed, May 19
3:00 PM
Wed, May 19
4:00 PM
Wed, May 19
5:00 PM
Wed, May 19
6:00 PM
Wed, May 19
7:00 PM
Wed, May 19
8:00 PM
Wed, May 19
9:00 PM
Wed, May 19
10:00 PM
Wed, May 19
11:00 PM
Thu, May 20
12:00 AM
Thu, May 20
1:00 AM
Thu, May 20
2:00 AM
Thu, May 20
3:00 AM
Thu, May 20
4:00 AM
Thu, May 20
5:00 AM
Thu, May 20
6:00 AM
Thu, May 20
7:00 AM
Thu, May 20
8:00 AM
Thu, May 20
9:00 AM
Thu, May 20
10:00 AM
Thu, May 20
11:00 AM
Thu, May 20
12:00 PM
Thu, May 20
1:00 PM
Thu, May 20
2:00 PM
Thu, May 20
3:00 PM
Condition
Clear

Clouds

Clouds

Clouds

Clouds

Clouds

Clouds

Clouds

Clouds

Clouds

Clouds

Clouds

Clouds

Clouds

Clouds

Clouds

Clouds

Clouds

Clouds

Clouds

Clouds

Clouds

Clouds

Clouds

Clouds

Clouds

Clouds

Clouds

Clouds

Clouds

Clouds

Clouds

Clouds

Clouds

Clouds

Clouds

Clouds

Clouds

Clouds

Clouds

Clear

Clear

Clear

Clear

Clear

Clear

Clear

Clear
Temperature 77°F76°F74°F72°F71°F69°F68°F70°F71°F70°F68°F67°F67°F66°F65°F65°F67°F71°F74°F77°F80°F82°F83°F84°F84°F78°F76°F73°F70°F69°F69°F69°F68°F68°F66°F65°F64°F63°F63°F64°F67°F71°F74°F77°F79°F81°F82°F83°F
Feels Like 77°F76°F74°F72°F71°F69°F68°F70°F70°F70°F68°F67°F66°F65°F65°F64°F67°F71°F74°F77°F80°F81°F82°F83°F83°F78°F77°F73°F70°F69°F69°F69°F68°F68°F66°F65°F64°F63°F62°F64°F67°F70°F73°F76°F79°F80°F81°F81°F
Cloudiness 1%21%41%60%80%100%100%100%100%100%100%99%100%98%98%98%92%94%96%95%95%95%71%85%89%90%91%79%92%96%96%90%90%77%13%21%40%44%37%31%0%0%1%1%1%1%1%3%
Visibility 6 mi6 mi6 mi6 mi6 mi6 mi6 mi6 mi6 mi6 mi6 mi6 mi6 mi6 mi6 mi6 mi6 mi6 mi6 mi6 mi6 mi6 mi6 mi6 mi6 mi6 mi6 mi6 mi6 mi6 mi6 mi6 mi6 mi6 mi6 mi6 mi6 mi6 mi6 mi6 mi6 mi6 mi6 mi6 mi6 mi6 mi6 mi6 mi
Precipitation 10%4%0%0%13%25%16%8%0%0%0%0%0%0%0%0%0%0%0%0%0%0%0%0%0%0%0%0%0%0%0%0%0%0%0%0%0%0%0%0%0%0%0%0%0%0%0%0%
Humidity 61%62%65%69%70%73%75%65%60%61%65%69%70%72%73%77%73%64%54%47%43%41%39%37%39%54%59%68%75%79%73%74%74%73%75%79%82%84%84%81%71%59%48%41%37%34%32%32%
Dew Point 62°F62°F61°F61°F61°F60°F60°F58°F56°F56°F56°F56°F56°F56°F56°F57°F58°F58°F56°F55°F56°F56°F55°F55°F57°F60°F61°F62°F62°F62°F60°F60°F59°F59°F58°F58°F58°F58°F57°F58°F57°F55°F53°F51°F50°F50°F50°F50°F
Pressure 30.15"30.15"30.15"30.12"30.15"30.18"30.18"30.15"30.15"30.15"30.15"30.15"30.15"30.18"30.21"30.24"30.24"30.27"30.24"30.24"30.21"30.18"30.18"30.15"30.12"30.15"30.15"30.18"30.18"30.21"30.21"30.21"30.21"30.21"30.24"30.24"30.24"30.24"30.27"30.3"30.3"30.3"30.3"30.3"30.27"30.27"30.24"30.24"
Wind Speed 7 mph5.9 mph3.8 mph4.7 mph6.4 mph7.8 mph9 mph12.2 mph14.1 mph13.5 mph12.8 mph13.1 mph12.2 mph11.4 mph10.7 mph10.8 mph10.9 mph12.2 mph12.7 mph12.8 mph12.5 mph11.7 mph11 mph10.6 mph11.9 mph12.2 mph12.8 mph10.8 mph8.1 mph7.9 mph9.2 mph9.7 mph10.4 mph10.8 mph9.9 mph9.7 mph9.2 mph9.7 mph9.5 mph9.7 mph10.7 mph11.6 mph11 mph11.3 mph10.8 mph10.8 mph10.9 mph10.6 mph
Wind
Direction
151°
SSE
117°
ESE
120°
ESE
101°
E
105°
ESE
115°
ESE
112°
ESE
120°
ESE
126°
SE
129°
SE
128°
SE
129°
SE
132°
SE
126°
SE
123°
ESE
118°
ESE
118°
ESE
124°
SE
125°
SE
126°
SE
126°
SE
127°
SE
130°
SE
132°
SE
128°
SE
123°
ESE
121°
ESE
115°
ESE
109°
ESE
110°
ESE
111°
ESE
112°
ESE
122°
ESE
122°
ESE
125°
SE
121°
ESE
118°
ESE
118°
ESE
115°
ESE
118°
ESE
117°
ESE
122°
ESE
119°
ESE
118°
ESE
121°
ESE
123°
ESE
124°
SE
123°
ESE

Daily Forecast

Date High Low Precip. Humidity
Today
May 18

Clouds
77 °F
64 °F
25%
60%
Wednesday
May 19

Clouds
84 °F
65 °F
0%
43%
Thursday
May 20

Clear
82 °F
63 °F
0%
34%
Friday
May 21

Clouds
85 °F
61 °F
0%
37%
Saturday
May 22

Clouds
86 °F
61 °F
0%
36%
Sunday
May 23

Clear
89 °F
63 °F
0%
36%
Monday
May 24

Clouds
92 °F
65 °F
0%
39%
Tuesday
May 25

Clear
94 °F
72 °F
0%
33%
Wednesday
May 26

Clouds
95 °F
70 °F
17%
36%
Thursday
May 27

Clouds
94 °F
69 °F
5%
35%
Friday
May 28

Rain
92 °F
70 °F
54%
38%
Saturday
May 29

Rain
88 °F
67 °F
53%
34%
Sunday
May 30

Clouds
91 °F
62 °F
0%
30%
Monday
May 31

Clouds
91 °F
69 °F
21%
40%
Tuesday
Jun 1

Rain
86 °F
68 °F
72%
57%
Wednesday
Jun 2

Clouds
94 °F
67 °F
0%
41%

Temperature 8-14 Day Outlook



Precipitation 8-14 Day Outlook




Quick Links
Sylacauga Online News
Sylacauga Online Photos
Sylacauga Online Videos




About Us
Contact Us
Site Map
Search Site
Advertise With Us
   
www.SylacaugaOnline.com
THE SYLACAUGA ONLINE WEBSITE

Copyright 2021, Tourism Regions
Privacy    |    Legal